Preview of NWS' New Version of Forecast
This preview is not operational and should not be used for support decisions.

Regional Weather Roundup (RWR)

Issued by National Weather Service (NWS)

                            
000
ASUS42 KTBW 200417
RWRFL 
FLORIDA REGIONAL WEATHER ROUNDUP
NATIONAL WEATHER SERVICE TAMPA BAY RUSKIN FL
1200 AM EDT FRI SEP 20 2019

NOTE: "FAIR" INDICATES FEW OR NO CLOUDS BELOW 12,000 FEET WITH NO
SIGNIFICANT WEATHER AND/OR OBSTRUCTIONS TO VISIBILITY.

FLZ001>010-012>015-112-114-115-200500-
PANHANDLE FLORIDA
  
CITY           SKY/WX    TMP DP  RH WIND       PRES   REMARKS
PENSACOLA      FAIR      81  74  79 NE5       30.08S                  
PENSACOLA NAS  FAIR      82  72  71 SE8       30.07F                  
MILTON NAS     FAIR      73  69  87 E5        30.10                   
CRESTVIEW      FAIR      72  64  76 CALM      30.12S                  
DUKE FIELD     FAIR      75  61  60 E3        30.11R                  
VALPARAISO     FAIR      80  59  48 E6        30.10R                  
MARY ESTHER    PTCLDY    82  61  49 E5        30.08S                  
TRI COUNTY     FAIR      72  56  57 CALM      30.13                   
PANAMA CITY    FAIR      76  54  46 NE7       30.10R                  
TYNDALL AFB    FAIR      75  61  60 NE5       30.09S                  
APALACHICOLA   FAIR      76  61  59 E8        30.09R                  

STATION/POSITION SKY/WX   TEMP    WIND        PRES    WAVE   SWELL
                          AIR SEA DIR/SP/G            HT/PER HT/PER
                          (F)     (DEG/KT/KT) (MB)    (FT/S) (FT/S)
30.1N   87.6W              83 85  130/ 14/ 17 1018.5
29.2N   88.2W              83     110/ 17/ 19 1017.8R   4/ 8   2/ 8
28.8N   86.0W                 85   70/ 17/ 21 1017.7S   5/ 6
PANAMA CITY BEAC           80 84  100/  6/ 11 1019.6R
TOWER C                    79      90/ 27/ 29 1018.9R
28.5N   84.5W              81      60/ 21/ 25 1018.4R   6/ 6

$$
FLZ011-016>038-118-127-128-134-139-239-200500-
NORTH FLORIDA
  
CITY           SKY/WX    TMP DP  RH WIND       PRES   REMARKS
MARIANNA       FAIR      68  57  68 E5        30.12R                  
TALLAHASSEE    FAIR      74  63  68 E10       30.13R                  
PERRY          FAIR      73  66  78 E8        30.14S                  
LIVE OAK       CLOUDY    73  63  68 NE7       30.14S                  
CROSS CITY     MOCLDY    72  68  87 NE10      30.12F                  
LAKE CITY      FAIR      70  63  78 NE6       30.14F                  
GAINESVILLE    CLOUDY    70  67  90 NE6       30.15R                  
WILLISTON      CLOUDY    71  69  95 NE8       30.12S                  
PALATKA        CLOUDY    68  66  94 N5        30.11F                  
MAYPORT NAS    LGT RAIN  74  69  85 NE26G35   30.12S                  
JACKSONVILLE   CLOUDY    74  66  76 NE12      30.12F                  
JAX NAS        LGT RAIN  71  67  87 NE9       30.13F                  
JAX CECIL      CLOUDY    70  68  94 CALM      30.14F                  
FERNANDINA BEA FAIR      75  69  80 NE20G28   30.13F                  
ST AUGUSTINE   MOCLDY   N/A N/A N/A NE21      30.11F                  
PALM COAST     MOCLDY    77  65  65 E12       30.09S                  

STATION/POSITION SKY/WX   TEMP    WIND        PRES    WAVE   SWELL
                          AIR SEA DIR/SP/G            HT/PER HT/PER
                          (F)     (DEG/KT/KT) (MB)    (FT/S) (FT/S)
SHELL POINT      NOT AVBL
KEATON BEACH               73      70/  9/ 11 1020.2F
CEDAR KEY                  74      50/ 15/ 18 1019.5R
FERNANDINA                 80 82   20/  8/ 16 1021.2F
30.7N   81.3W                 82                N/A     9/ 7   3/13
MAYPORT                    73 82  100/ 12/ 18 1020.8R
31.4N   80.9W              77 82   60/ 21/ 27 1020.5S   7/ 7   3/12
ST AUGUSTINE               81 81   70/ 24/ 25 1019.3S

$$
FLZ040-043>046-052-053-057-058-063-144-200500-
INTERIOR CENTRAL FLORIDA
  
CITY           SKY/WX    TMP DP  RH WIND       PRES   REMARKS
OCALA          CLOUDY    72  69  90 N8        30.11S                  
LEESBURG       FAIR      73  69  87 N7        30.09F                  
SANFORD        FAIR      73  65  75 N9        30.07S                  
ORLANDO EXEC   FAIR      76  65  68 NE7       30.07S                  
ORLANDO INTL   FAIR      74  65  73 NE7       30.07S                  
KISSIMMEE      FAIR      76  67  73 NE6       30.07S                  
WINTER HAVEN   FAIR      74  67  78 N5        30.07S                  
BARTOW           N/A     75  68  78 N3        30.05S                  
SEBRING        FAIR      73  68  86 NE12      30.05S                  
OKEECHOBEE       N/A     72  68  88 NE5       30.02F                  

$$
FLZ041-047-054-059-064-141-147-200500-
EAST CENTRAL FLORIDA
  
CITY           SKY/WX    TMP DP  RH WIND       PRES   REMARKS
DAYTONA BEACH  FAIR      78  65  63 E12       30.08S                  
DELAND         FAIR      72  64  78 NE5       30.08S                  
JFK SPACE CTR  FAIR      78  51  39 E12G23    30.06R                  
CAPE CANAVERAL FAIR      76  71  83 E14G23    30.04S                  
PATRICK AFB    FAIR      79  72  80 NE18G28   30.04S                  
MELBOURNE      MOCLDY    80  68  66 E18G26    30.04F                  
VERO BEACH     CLOUDY    78  70  76 E16G22    30.03S                  
FT PIERCE      FAIR      79  67  66 E15G22    30.02S                  
STUART         FAIR      77  68  73 E17G25    30.02F                  

STATION/POSITION SKY/WX   TEMP    WIND        PRES    WAVE   SWELL
                          AIR SEA DIR/SP/G            HT/PER HT/PER
                          (F)     (DEG/KT/KT) (MB)    (FT/S) (FT/S)
28.5N   80.2W              80 83   60/ 21/ 29 1018.0R  11/12   8/12
28.9N   78.5W              80 81   60/ 23/ 31 1018.4
TRIDENT PIER               77 83   50/ 13/ 20 1019.2S
28.4N   80.5W                 82                N/A     6/13   3/13
27.5N   80.2W                 83                N/A    10/13   7/13

$$
FLZ050-056-061-142-242-148-248-149-249-151-251-155-255-
160-260-200500-
WEST CENTRAL FLORIDA
  
CITY           SKY/WX    TMP DP  RH WIND       PRES   REMARKS
CRYSTAL RIVER  MOCLDY    72  68  88 NE7       30.09F                  
INVERNESS      MOCLDY    72  72 100 NE8       30.10S                  
BROOKSVILLE    FAIR      71  66  84 N7        30.08F                  
CLEARWATER AIR FAIR      73  68  83 NE6       30.06S                  
ST PETE CLEARW FAIR      77  68  73 NE10      30.06S                  
TAMPA INTL     MOCLDY    76  67  73 NE8       30.06S                  
TAMPA EXEC     MOCLDY    73  68  83 CALM      30.07S                  
PLANT CITY     FAIR      73  70  88 NE3       30.09R                  
MACDILL AFB    CLOUDY    75  66  72 NE10      30.05S                  
PETER O KNIGHT CLOUDY    77  68  73 NE13      30.06S                  
ST PETERSBURG  CLOUDY    79  69  71 NE18      30.04S                  
SARASOTA       CLOUDY    78  66  66 E12       30.02S                  
VENICE         MOCLDY    77  66  69 NE14      30.03F                  

STATION/POSITION SKY/WX   TEMP    WIND        PRES    WAVE   SWELL
                          AIR SEA DIR/SP/G            HT/PER HT/PER
                          (F)     (DEG/KT/KT) (MB)    (FT/S) (FT/S)
27.3N   84.2W                 85                N/A     7/ 6
CLEARWATER BEACH           76 87   40/ 10/ 17 1018.2S
MIDDLE TAMPA BAY           79     120/ 13/ 17 1017.8R
VENICE                     77 85   50/ 11/ 15 1016.7F

$$
FLZ066-069-070-075>078-162-262-165-265-200500-
SOUTHWEST FLORIDA AND KEYS
  
CITY           SKY/WX    TMP DP  RH WIND       PRES   REMARKS
PUNTA GORDA    FAIR      73  68  84 NE12      30.04S                  
FT MYERS       FAIR      74  66  76 NE12      30.00F                  
SOUTHWEST INTL FAIR      73  66  78 NE12      30.01F                  
NAPLES         FAIR      76  69  79 NE9       29.99F                  
MARCO ISLAND   MOCLDY    75  69  81 NE8       30.00F                  
IMMOKALEE      MOCLDY    72  68  88 NE6       29.99S                  
MARATHON       FAIR      80  72  76 NE15      29.94F                  
KEY WEST NAS   FAIR      82  70  66 NE10G22   29.94F                  
KEY WEST INTL  FAIR      81  69  67 NE10G18   29.95F                  

STATION/POSITION SKY/WX   TEMP    WIND        PRES    WAVE   SWELL
                          AIR SEA DIR/SP/G            HT/PER HT/PER
                          (F)     (DEG/KT/KT) (MB)    (FT/S) (FT/S)
NAPLES                     76 85   40/  8/ 12 1015.8F
26.0N   85.6W              84 86   50/ 16/ 19 1015.4F   6/ 7   2/14
DRY TORTUGAS               83      60/ 26/ 29 1014.3F
SAND KEY                   82      60/ 22/ 27 1012.3F
SOMBRERO KEY               81      40/ 18/ 22 1014.2S
LONG KEY                   80                 1012.8F

$$
FLZ067-068-071>074-168-172>174-200500-
SOUTHEAST FLORIDA 
  
CITY           SKY/WX    TMP DP  RH WIND       PRES   REMARKS
W PALM BEACH   MOCLDY    75  69  81 NE6       30.01F                  
FT LAUDER-EXEC CLOUDY    79  69  71 NE14G24   29.98S                  
FT LAUDERDALE  MOCLDY    79  69  71 E20G25    29.98R                  
POMPANO BEACH  CLOUDY    80  68  66 NE18G28   29.99R                  
PEMBROKE PINES MOCLDY    80  70  71 NE15      30.00S                  
OPA LOCKA      MOCLDY    80  70  71 NE18G26   29.99R                  
MIAMI          MOCLDY    81  68  64 NE14G24   29.98R                  
WEST KENDALL   MOCLDY    80  71  74 NE14      29.97S                  
HOMESTEAD      RAIN      76  72  88 E22G30    29.96R                  

STATION/POSITION SKY/WX   TEMP    WIND        PRES    WAVE   SWELL
                          AIR SEA DIR/SP/G            HT/PER HT/PER
                          (F)     (DEG/KT/KT) (MB)    (FT/S) (FT/S)
VIRGINIA KEY               81 85   40/ 15/ 21 1014.4S
LAKE WORTH                 76 83   50/ 11/ 27 1017.2F
FOWEY ROCKS                81 84   60/ 23/ 27 1014.7S
SETTLEMENT POINT           79      50/ 16/ 19 1015.7F

$$